DW8215 Weather Reports


Display with metric or nautical units.
time (UTC)temp
F
wind
direction
speed
MPH
gust
MPH
rain 1hr
in
rain 24hr
in
rain mn
in
humidity
%
barometer
mb
20260902133028 65 144 0.0 0.0 0.00 0.00 0.00 89 1013.0
20260902131525 64 144 0.0 0.0 0.00 0.00 0.00 91 1012.8
20260902130030 64 144 0.0 0.0 0.00 0.00 0.00 92 1012.7
20260902124521 63 144 0.0 0.0 0.00 0.00 0.00 93 1012.9
20260902123028 62 144 0.0 0.0 0.00 0.00 0.00 94 1012.8
20260902121520 62 144 0.0 0.0 0.00 0.00 0.00 93 1012.8
20260902120019 62 144 0.0 0.0 0.00 0.00 0.00 93 1013.0
20260902114524 62 144 0.0 0.0 0.00 0.00 0.00 93 1013.1
20260902113018 62 144 0.0 0.0 0.00 0.00 0.00 93 1013.1
20260902111521 62 144 0.0 0.0 0.00 0.00 0.00 92 1013.2
20260902110018 62 141 0.0 0.0 0.00 0.00 0.00 93 1013.2
20260902104519 62 142 0.0 0.0 0.00 0.00 0.00 94 1012.9
20260902103014 62 142 0.0 0.0 0.00 0.00 0.00 92 1012.7
20260902101513 62 142 0.0 0.0 0.00 0.00 0.00 92 1012.8
20260902100012 62 146 0.0 0.0 0.00 0.00 0.00 92 1012.8
20260902094509 62 186 0.0 0.0 0.00 0.00 0.00 92 1012.7
20260902093012 62 186 0.0 0.0 0.00 0.00 0.00 92 1012.5
20260902091509 62 186 0.0 0.0 0.00 0.00 0.00 91 1012.2
20260902090008 63 186 0.0 0.0 0.00 0.00 0.00 90 1012.3
20260902084507 62 186 0.0 2.0 0.00 0.00 0.00 91 1012.4
20260902083007 62 282 0.0 0.0 0.00 0.00 0.00 92 1012.2
20260902081507 62 282 0.0 0.0 0.00 0.00 0.00 91 1012.2
20260902080006 62 282 0.0 0.0 0.00 0.00 0.00 91 1012.3
20260902074506 62 282 0.0 0.0 0.00 0.00 0.00 90 1012.1
20260902073014 63 282 0.0 0.0 0.00 0.00 0.00 89 1012.2
20260902071505 63 282 0.0 0.0 0.00 0.00 0.00 88 1012.2
20260902070006 63 282 0.0 0.0 0.00 0.00 0.00 89 1012.5
20260902064502 62 274 0.0 0.0 0.00 0.00 0.00 89 1012.5
20260902063004 62 265 0.0 0.0 0.00 0.00 0.00 89 1012.6
20260902061601 62 265 0.0 0.0 0.00 0.00 0.00 89 1012.5
20260902060124 62 265 0.0 0.0 0.00 0.00 0.00 88 1012.3
20260902054558 62 265 0.0 0.0 0.00 0.00 0.00 89 1012.2
20260902053057 62 265 0.0 0.0 0.00 0.00 0.00 90 1012.4
20260902051556 62 265 0.0 0.0 0.00 0.00 0.00 92 1012.4
20260902050055 62 265 0.0 0.0 0.00 0.00 0.00 91 1012.3
20260902044553 62 265 0.0 0.0 0.00 0.00 0.00 90 1012.1
20260902043055 62 265 0.0 0.0 0.00 0.00 0.00 90 1012.0
20260902041605 62 265 0.0 0.0 0.00 0.00 0.00 91 1012.0
20260902040048 61 265 0.0 0.0 0.00 0.00 0.00 92 1012.1
20260902034550 61 265 0.0 0.0 0.00 0.00 0.00 92 1012.1
20260902033054 61 265 0.0 0.0 0.00 0.00 0.00 93 1012.0
20260902031547 61 265 0.0 0.0 0.00 0.00 0.00 93 1012.0
20260902030048 61 265 0.0 0.0 0.00 0.00 0.00 92 1011.9
20260902024546 62 239 0.0 0.0 0.00 0.00 0.00 92 1011.8
20260902023048 62 239 0.0 0.0 0.00 0.00 0.00 92 1011.8
20260902021550 62 239 0.0 0.0 0.00 0.00 0.00 92 1011.7
20260902020045 63 239 0.0 0.0 0.00 0.00 0.00 91 1011.5
20260902014549 64 239 0.0 0.0 0.00 0.00 0.00 90 1011.5
20260902013044 65 296 0.0 0.0 0.00 0.00 0.00 89 1011.4
20260902011543 66 307 0.0 0.0 0.00 0.00 0.00 88 1011.3
20260902010042 67 307 0.0 0.0 0.00 0.00 0.00 86 1011.1
20260902004543 68 307 0.0 0.0 0.00 0.00 0.00 86 1011.1
20260902003049 69 307 0.0 2.0 0.00 0.00 0.00 84 1011.0
20260902001541 70 328 0.0 0.0 0.00 0.00 0.00 81 1010.9
20260902000046 72 328 0.0 0.0 0.00 0.00 0.00 78 1010.9
20260901234540 74 328 0.0 0.0 0.00 0.00 0.00 68 1011.0
20260901233039 76 328 0.0 0.0 0.00 0.00 0.00 64 1010.9
20260901231547 77 328 0.0 3.0 0.00 0.00 0.00 59 1010.8
20260901230039 78 292 0.0 3.0 0.00 0.00 0.00 57 1010.9
20260901224537 80 15 0.0 3.0 0.00 0.00 0.00 58 1010.8
20260901223038 80 304 0.0 3.0 0.00 0.00 0.00 54 1010.7
20260901221536 82 42 0.0 5.0 0.00 0.00 0.00 54 1010.5
20260901214534 84 5 0.0 1.0 0.00 0.00 0.00 55 1010.3
20260901213100 84 299 0.0 5.0 0.00 0.00 0.00 54 1010.2
20260901211534 84 5 1.0 5.0 0.00 0.00 0.00 54 1010.2
20260901210035 85 355 1.0 6.0 0.00 0.00 0.00 53 1010.2
20260901204537 85 35 0.0 4.0 0.00 0.00 0.00 56 1010.3
20260901203048 85 15 0.0 6.0 0.00 0.00 0.00 57 1010.4
20260901201530 86 24 0.0 5.0 0.00 0.00 0.00 53 1010.4
20260901200034 87 324 0.0 7.0 0.00 0.00 0.00 56 1010.4
20260901194536 87 355 2.0 7.0 0.00 0.00 0.00 54 1010.3
20260901193026 88 337 1.0 4.0 0.00 0.00 0.00 45 1010.5
20260901191523 87 323 2.0 6.0 0.00 0.00 0.00 48 1010.8
20260901190023 87 264 0.0 8.0 0.00 0.00 0.00 48 1010.9
20260901184527 87 175 1.0 7.0 0.00 0.00 0.00 46 1011.2
20260901183027 86 57 1.0 7.0 0.00 0.00 0.00 48 1011.2
20260901181515 86 234 2.0 7.0 0.00 0.00 0.00 50 1011.4
20260901180011 85 88 1.0 5.0 0.00 0.00 0.00 55 1011.5
20260901174511 85 144 1.0 7.0 0.00 0.00 0.00 52 1011.6
20260901173007 85 296 2.0 5.0 0.00 0.00 0.00 51 1012.0
20260901171505 84 242 1.0 7.0 0.00 0.00 0.00 56 1012.1
20260901170002 84 307 1.0 7.0 0.00 0.00 0.00 58 1012.2
20260901164613 83 156 1.0 4.0 0.00 0.00 0.00 64 1012.3
20260901163056 83 257 1.0 5.0 0.00 0.00 0.00 68 1012.4
20260901161555 82 282 2.0 6.0 0.00 0.00 0.00 67 1012.3
20260901160056 82 291 1.0 4.0 0.00 0.00 0.00 68 1012.4
20260901154552 81 277 2.0 4.0 0.00 0.00 0.00 69 1012.4
20260901153047 80 200 1.0 5.0 0.00 0.00 0.00 70 1012.3
20260901151544 79 260 0.0 5.0 0.00 0.00 0.00 77 1012.2
20260901150040 78 198 0.0 2.0 0.00 0.00 0.00 79 1012.3
20260901144535 76 163 0.0 2.0 0.00 0.00 0.00 83 1012.3
20260901143042 74 135 0.0 3.0 0.00 0.00 0.00 89 1012.6
20260901141527 72 169 0.0 3.0 0.00 0.00 0.00 96 1012.8
20260901140035 70 189 0.0 2.0 0.00 0.00 0.00 100 1013.0
20260901134523 69 160 0.0 2.0 0.00 0.00 0.00 100 1013.0